RYR9BG EPKK-LIPY

Flight info

Callsign RYR9BG
Flight time 1h 20m
Altitude 38000
Route BABKO5J DCT NIDOK DCT KOPRY DCT ELGUS/N0342F200 M730 TORPO/N0337F190 M730 KEGED1S
Aircraft B738/M-SDE3FGILRWY/SB1

Departure

Time 2026-04-24 10:06
Airport Kraków John Paul II International Airport (EPKK)

Arrival

Time 2026-04-24 11:27
Airport Marche Airport (LIPY)
Time Latitude Longitude Altitude Speed Heading
2026-04-24 09:45 50.07597 19.80230 799 ft 0 kts 348°
2026-04-24 10:00 50.07604 19.80227 799 ft 3 kts 348°
2026-04-24 10:00 50.07639 19.80231 799 ft 7 kts 36°
2026-04-24 10:01 50.07656 19.80302 799 ft 7 kts 75°
2026-04-24 10:01 50.07673 19.80371 799 ft 7 kts 45°
2026-04-24 10:01 50.07719 19.80380 799 ft 7 kts 346°
2026-04-24 10:01 50.07765 19.80363 799 ft 7 kts 347°
2026-04-24 10:02 50.07795 19.80353 799 ft 7 kts 348°
2026-04-24 10:02 50.07839 19.80338 799 ft 6 kts 348°
2026-04-24 10:02 50.07845 19.80336 799 ft 0 kts 348°
2026-04-24 10:04 50.07850 19.80335 799 ft 2 kts 348°
2026-04-24 10:05 50.07875 19.80326 799 ft 5 kts 348°
2026-04-24 10:05 50.07923 19.80310 799 ft 9 kts 348°
2026-04-24 10:05 50.07993 19.80283 799 ft 12 kts 335°
2026-04-24 10:05 50.08007 19.80160 800 ft 16 kts 258°
2026-04-24 10:06 50.07946 19.79727 800 ft 77 kts 257°
2026-04-24 10:06 50.07557 19.76895 1122 ft 172 kts 259°
2026-04-24 10:06 50.07268 19.74967 1719 ft 190 kts 256°
2026-04-24 10:07 50.06949 19.73018 2658 ft 190 kts 261°
2026-04-24 10:07 50.06657 19.70877 3014 ft 215 kts 261°
2026-04-24 10:07 50.06149 19.68635 3620 ft 230 kts 240°
2026-04-24 10:07 50.05042 19.66813 4432 ft 239 kts 220°
2026-04-24 10:08 50.03616 19.65408 5269 ft 251 kts 212°
2026-04-24 10:08 50.01822 19.64790 5723 ft 281 kts 176°
2026-04-24 10:08 49.99874 19.65453 6489 ft 292 kts 166°
2026-04-24 10:08 49.97889 19.66277 7288 ft 298 kts 166°
2026-04-24 10:09 49.95869 19.67059 8169 ft 301 kts 167°
2026-04-24 10:09 49.93809 19.67799 9027 ft 306 kts 168°
2026-04-24 10:09 49.91714 19.68517 9895 ft 311 kts 168°
2026-04-24 10:09 49.89569 19.69231 10502 ft 323 kts 171°
2026-04-24 10:10 49.87256 19.69132 10737 ft 344 kts 197°
2026-04-24 10:10 49.85066 19.67627 11407 ft 347 kts 211°
2026-04-24 10:10 49.82949 19.65789 12180 ft 351 kts 212°
2026-04-24 10:10 49.80815 19.63889 12941 ft 357 kts 212°
2026-04-24 10:11 49.78646 19.61963 13692 ft 362 kts 212°
2026-04-24 10:11 49.76439 19.60023 14398 ft 366 kts 212°
2026-04-24 10:11 49.74211 19.58084 15122 ft 369 kts 211°
2026-04-24 10:11 49.71949 19.56128 15787 ft 375 kts 211°
2026-04-24 10:12 49.69650 19.54148 16426 ft 381 kts 211°
2026-04-24 10:12 49.67325 19.52150 17103 ft 385 kts 211°
2026-04-24 10:12 49.64970 19.50130 17774 ft 389 kts 211°
2026-04-24 10:12 49.62585 19.48087 18419 ft 394 kts 211°
2026-04-24 10:13 49.60181 19.46020 19023 ft 397 kts 212°
2026-04-24 10:13 49.57777 19.43901 19636 ft 400 kts 212°
2026-04-24 10:13 49.55362 19.41747 20251 ft 402 kts 212°
2026-04-24 10:13 49.52937 19.39578 20843 ft 405 kts 212°
2026-04-24 10:14 49.50516 19.37415 21396 ft 410 kts 212°
2026-04-24 10:14 49.48008 19.35181 21972 ft 413 kts 212°
2026-04-24 10:14 49.45548 19.32996 22558 ft 415 kts 212°
2026-04-24 10:14 49.43033 19.30767 23105 ft 419 kts 212°
2026-04-24 10:15 49.40500 19.28526 23667 ft 422 kts 212°
2026-04-24 10:15 49.37945 19.26270 24119 ft 425 kts 212°
2026-04-24 10:15 49.35372 19.24001 24567 ft 428 kts 212°
2026-04-24 10:15 49.32779 19.21717 25025 ft 431 kts 212°
2026-04-24 10:16 49.30170 19.19423 25483 ft 434 kts 212°
2026-04-24 10:16 49.27543 19.17114 25878 ft 437 kts 211°
2026-04-24 10:16 49.24893 19.14788 26299 ft 440 kts 211°
2026-04-24 10:16 49.22220 19.12446 26728 ft 444 kts 211°
2026-04-24 10:17 49.19535 19.10094 27098 ft 447 kts 211°
2026-04-24 10:17 49.16835 19.07732 27511 ft 449 kts 211°
2026-04-24 10:17 49.14113 19.05355 27905 ft 452 kts 211°
2026-04-24 10:17 49.11376 19.02970 28305 ft 454 kts 211°
2026-04-24 10:18 49.08623 19.00572 28695 ft 457 kts 211°
2026-04-24 10:18 49.05856 18.98166 29073 ft 460 kts 211°
2026-04-24 10:18 49.03067 18.95743 29438 ft 462 kts 211°
2026-04-24 10:18 49.00263 18.93310 29795 ft 465 kts 211°
2026-04-24 10:19 48.97443 18.90866 30145 ft 468 kts 211°
2026-04-24 10:19 48.94605 18.88409 30438 ft 470 kts 211°
2026-04-24 10:19 48.91756 18.85946 30722 ft 473 kts 211°
2026-04-24 10:19 48.88888 18.83470 30986 ft 475 kts 211°
2026-04-24 10:20 48.85983 18.81025 31265 ft 478 kts 209°
2026-04-24 10:20 48.83019 18.78723 31532 ft 481 kts 207°
2026-04-24 10:20 48.80004 18.76490 31786 ft 483 kts 207°
2026-04-24 10:20 48.77002 18.74308 32019 ft 485 kts 206°
2026-04-24 10:21 48.73953 18.72098 32330 ft 486 kts 206°
2026-04-24 10:21 48.70905 18.69879 32695 ft 486 kts 207°
2026-04-24 10:21 48.67866 18.67654 33075 ft 485 kts 207°
2026-04-24 10:21 48.64833 18.65423 33383 ft 485 kts 207°
2026-04-24 10:22 48.61796 18.63184 33684 ft 486 kts 207°
2026-04-24 10:22 48.58758 18.60942 34001 ft 486 kts 207°
2026-04-24 10:22 48.55723 18.58705 34299 ft 485 kts 207°
2026-04-24 10:22 48.52695 18.56474 34585 ft 484 kts 207°
2026-04-24 10:23 48.49670 18.54250 34889 ft 483 kts 207°
2026-04-24 10:23 48.46652 18.52035 35190 ft 482 kts 207°
2026-04-24 10:23 48.43641 18.49828 35485 ft 481 kts 207°
2026-04-24 10:23 48.40634 18.47628 35762 ft 480 kts 207°
2026-04-24 10:24 48.37632 18.45433 36041 ft 479 kts 207°
2026-04-24 10:24 48.34634 18.43245 36317 ft 478 kts 207°
2026-04-24 10:24 48.31641 18.41063 36560 ft 478 kts 206°
2026-04-24 10:24 48.28650 18.38886 36801 ft 478 kts 206°
2026-04-24 10:25 48.25661 18.36713 37083 ft 477 kts 206°
2026-04-24 10:25 48.22680 18.34548 37330 ft 476 kts 206°
2026-04-24 10:25 48.19698 18.32386 37545 ft 476 kts 206°
2026-04-24 10:25 48.16711 18.30223 37745 ft 477 kts 206°
2026-04-24 10:26 48.13729 18.28066 37986 ft 476 kts 206°
2026-04-24 10:26 48.07748 18.23748 38069 ft 478 kts 206°
2026-04-24 10:27 48.01765 18.19442 38053 ft 476 kts 206°
2026-04-24 10:27 47.95815 18.15169 38066 ft 473 kts 206°
2026-04-24 10:28 47.89898 18.10931 38073 ft 471 kts 206°
2026-04-24 10:28 47.83990 18.06710 38081 ft 470 kts 206°
2026-04-24 10:29 47.78088 18.02503 38096 ft 471 kts 206°
2026-04-24 10:29 47.72167 17.98294 38106 ft 473 kts 206°
2026-04-24 10:30 47.66218 17.94076 38113 ft 475 kts 206°
2026-04-24 10:30 47.60236 17.89846 38111 ft 477 kts 206°
2026-04-24 10:31 47.54232 17.85610 38113 ft 479 kts 206°
2026-04-24 10:31 47.48194 17.81362 38106 ft 481 kts 205°
2026-04-24 10:32 47.42142 17.77114 38100 ft 482 kts 205°
2026-04-24 10:32 47.36075 17.72867 38101 ft 483 kts 205°
2026-04-24 10:33 47.30046 17.68658 38102 ft 482 kts 205°
2026-04-24 10:33 47.23986 17.64437 38098 ft 481 kts 205°
2026-04-24 10:34 47.17949 17.60243 38093 ft 479 kts 205°
2026-04-24 10:34 47.11931 17.56073 38094 ft 477 kts 205°
2026-04-24 10:35 47.05929 17.51924 38093 ft 475 kts 205°
2026-04-24 10:35 46.99954 17.47804 38089 ft 474 kts 205°
2026-04-24 10:36 46.93992 17.43703 38104 ft 473 kts 204°
2026-04-24 10:36 46.88040 17.39619 38109 ft 472 kts 204°
2026-04-24 10:37 46.82094 17.35550 38128 ft 472 kts 204°
2026-04-24 10:37 46.76134 17.31481 38101 ft 472 kts 204°
2026-04-24 10:38 46.70180 17.27426 38106 ft 473 kts 204°
2026-04-24 10:38 46.64223 17.23378 38103 ft 473 kts 204°
2026-04-24 10:39 46.58253 17.19332 38106 ft 473 kts 204°
2026-04-24 10:39 46.52276 17.15290 38105 ft 474 kts 204°
2026-04-24 10:40 46.46289 17.11252 38114 ft 475 kts 204°
2026-04-24 10:40 46.40284 17.07212 38104 ft 476 kts 204°
2026-04-24 10:41 46.34276 17.03179 38115 ft 476 kts 204°
2026-04-24 10:41 46.28262 16.99149 38109 ft 477 kts 204°
2026-04-24 10:42 46.22266 16.95053 38105 ft 477 kts 206°
2026-04-24 10:42 46.16416 16.90539 38110 ft 477 kts 208°
2026-04-24 10:43 46.10601 16.85917 38125 ft 477 kts 208°
2026-04-24 10:43 46.04780 16.81338 38107 ft 477 kts 207°
2026-04-24 10:44 45.98942 16.76799 38122 ft 477 kts 207°
2026-04-24 10:44 45.93100 16.72283 38117 ft 477 kts 207°
2026-04-24 10:45 45.87258 16.67779 38130 ft 477 kts 207°
2026-04-24 10:45 45.81419 16.63286 38122 ft 477 kts 207°
2026-04-24 10:46 45.75572 16.58797 38130 ft 476 kts 207°
2026-04-24 10:46 45.70719 16.55079 38131 ft 476 kts 207°
2026-04-24 10:47 45.64871 16.50608 38128 ft 476 kts 206°
2026-04-24 10:47 45.59027 16.46151 38123 ft 476 kts 206°
2026-04-24 10:48 45.53177 16.41700 38139 ft 476 kts 206°
2026-04-24 10:48 45.47327 16.37260 38125 ft 476 kts 206°
2026-04-24 10:49 45.41479 16.32831 38126 ft 476 kts 206°
2026-04-24 10:49 45.35625 16.28409 38122 ft 476 kts 206°
2026-04-24 10:50 45.29768 16.23995 38129 ft 476 kts 206°
2026-04-24 10:50 45.23912 16.19592 38123 ft 476 kts 206°
2026-04-24 10:51 45.18087 16.15222 38130 ft 477 kts 206°
2026-04-24 10:51 45.12223 16.10834 38125 ft 477 kts 206°
2026-04-24 10:52 45.06361 16.06457 38128 ft 477 kts 206°
2026-04-24 10:52 45.00485 16.02080 38120 ft 477 kts 206°
2026-04-24 10:53 44.94608 15.97713 38121 ft 477 kts 206°
2026-04-24 10:53 44.88724 15.93350 38119 ft 478 kts 206°
2026-04-24 10:54 44.82830 15.88990 38115 ft 479 kts 205°
2026-04-24 10:54 44.76927 15.84634 38112 ft 479 kts 205°
2026-04-24 10:55 44.71007 15.80276 38103 ft 480 kts 205°
2026-04-24 10:55 44.65069 15.75914 37730 ft 487 kts 205°
2026-04-24 10:55 44.62076 15.73720 37371 ft 482 kts 205°
2026-04-24 10:56 44.59118 15.71551 36931 ft 478 kts 205°
2026-04-24 10:56 44.56179 15.69400 36538 ft 474 kts 205°
2026-04-24 10:56 44.53263 15.67267 36149 ft 471 kts 205°
2026-04-24 10:56 44.50370 15.65155 35760 ft 467 kts 204°
2026-04-24 10:57 44.47497 15.63060 35358 ft 464 kts 204°
2026-04-24 10:57 44.44640 15.60980 34973 ft 461 kts 204°
2026-04-24 10:57 44.41800 15.58914 34579 ft 459 kts 204°
2026-04-24 10:57 44.38976 15.56861 34192 ft 456 kts 204°
2026-04-24 10:58 44.36165 15.54821 33751 ft 454 kts 203°
2026-04-24 10:58 44.33365 15.52792 33335 ft 452 kts 203°
2026-04-24 10:58 44.30581 15.50776 32927 ft 450 kts 204°
2026-04-24 10:58 44.27811 15.48771 32557 ft 447 kts 204°
2026-04-24 10:59 44.25059 15.46782 32152 ft 444 kts 204°
2026-04-24 10:59 44.22328 15.44810 31786 ft 441 kts 204°
2026-04-24 10:59 44.19615 15.42853 31416 ft 438 kts 204°
2026-04-24 10:59 44.16918 15.40910 31052 ft 435 kts 204°
2026-04-24 11:00 44.14240 15.38983 30687 ft 432 kts 204°
2026-04-24 11:00 44.11575 15.37066 30318 ft 430 kts 204°
2026-04-24 11:00 44.08926 15.35164 29908 ft 427 kts 204°
2026-04-24 11:00 44.06326 15.33298 29498 ft 424 kts 204°
2026-04-24 11:01 44.03679 15.31401 29099 ft 421 kts 203°
2026-04-24 11:01 44.01122 15.29569 28731 ft 417 kts 203°
2026-04-24 11:01 43.98553 15.27730 28348 ft 414 kts 203°
2026-04-24 11:01 43.96001 15.25906 27955 ft 411 kts 203°
2026-04-24 11:02 43.93468 15.24098 27593 ft 408 kts 203°
2026-04-24 11:02 43.90956 15.22306 27228 ft 405 kts 203°
2026-04-24 11:02 43.88459 15.20527 26858 ft 402 kts 203°
2026-04-24 11:02 43.85977 15.18760 26492 ft 400 kts 203°
2026-04-24 11:03 43.83506 15.17003 26124 ft 398 kts 203°
2026-04-24 11:03 43.81051 15.15258 25759 ft 396 kts 203°
2026-04-24 11:03 43.78610 15.13525 25405 ft 394 kts 203°
2026-04-24 11:03 43.76175 15.11798 25051 ft 392 kts 203°
2026-04-24 11:04 43.73757 15.10084 24692 ft 390 kts 203°
2026-04-24 11:04 43.71344 15.08376 24334 ft 389 kts 204°
2026-04-24 11:04 43.68939 15.06674 23968 ft 388 kts 204°
2026-04-24 11:04 43.66540 15.04978 23578 ft 387 kts 204°
2026-04-24 11:05 43.64150 15.03290 23167 ft 385 kts 204°
2026-04-24 11:05 43.61770 15.01610 22788 ft 383 kts 204°
2026-04-24 11:05 43.59409 14.99946 22426 ft 380 kts 204°
2026-04-24 11:05 43.57234 14.97892 22048 ft 381 kts 225°
2026-04-24 11:06 43.55727 14.94935 21738 ft 376 kts 248°
2026-04-24 11:06 43.54992 14.91541 21446 ft 366 kts 268°
2026-04-24 11:06 43.54949 14.88082 21124 ft 359 kts 276°
2026-04-24 11:06 43.55060 14.84660 20775 ft 356 kts 277°
2026-04-24 11:07 43.55336 14.77874 20086 ft 353 kts 277°
2026-04-24 11:07 43.55460 14.74505 19760 ft 351 kts 277°
2026-04-24 11:07 43.55573 14.71151 19423 ft 350 kts 277°
2026-04-24 11:08 43.55678 14.67809 19094 ft 348 kts 277°
2026-04-24 11:08 43.55778 14.64479 18763 ft 347 kts 277°
2026-04-24 11:08 43.55875 14.61164 18430 ft 346 kts 277°
2026-04-24 11:08 43.55970 14.57862 18051 ft 344 kts 277°
2026-04-24 11:09 43.56064 14.54571 17685 ft 342 kts 277°
2026-04-24 11:09 43.56156 14.51299 17347 ft 340 kts 277°
2026-04-24 11:09 43.56247 14.48052 17011 ft 338 kts 277°
2026-04-24 11:09 43.56336 14.44826 16687 ft 336 kts 276°
2026-04-24 11:10 43.56422 14.41623 16377 ft 333 kts 276°
2026-04-24 11:10 43.56501 14.38473 16168 ft 327 kts 276°
2026-04-24 11:10 43.56577 14.35348 15854 ft 325 kts 276°
2026-04-24 11:10 43.56652 14.32248 15548 ft 323 kts 276°
2026-04-24 11:11 43.56726 14.29162 15238 ft 321 kts 276°
2026-04-24 11:11 43.56800 14.26088 14921 ft 320 kts 276°
2026-04-24 11:11 43.56872 14.23027 14604 ft 319 kts 276°
2026-04-24 11:11 43.56944 14.19980 14295 ft 317 kts 276°
2026-04-24 11:12 43.57015 14.16946 13979 ft 316 kts 276°
2026-04-24 11:12 43.57083 14.13918 13632 ft 315 kts 276°
2026-04-24 11:12 43.57159 14.10906 13301 ft 313 kts 276°
2026-04-24 11:12 43.57242 14.07915 12990 ft 311 kts 276°
2026-04-24 11:13 43.57327 14.04947 12680 ft 309 kts 276°
2026-04-24 11:13 43.57410 14.02000 12374 ft 307 kts 276°
2026-04-24 11:13 43.57492 13.99071 12075 ft 305 kts 276°
2026-04-24 11:13 43.57572 13.96154 11760 ft 303 kts 276°
2026-04-24 11:14 43.57596 13.95262 11664 ft 303 kts 276°
2026-04-24 11:14 43.57666 13.92670 11396 ft 301 kts 276°
2026-04-24 11:14 43.57743 13.89792 11092 ft 300 kts 276°
2026-04-24 11:14 43.57818 13.86927 10792 ft 298 kts 276°
2026-04-24 11:15 43.57618 13.84076 10449 ft 303 kts 253°
2026-04-24 11:15 43.56604 13.81550 10246 ft 301 kts 232°
2026-04-24 11:15 43.55279 13.79364 10075 ft 295 kts 230°
2026-04-24 11:15 43.53934 13.77233 9759 ft 294 kts 230°
2026-04-24 11:16 43.52592 13.75110 9461 ft 293 kts 230°
2026-04-24 11:16 43.51263 13.72993 9168 ft 291 kts 230°
2026-04-24 11:16 43.49949 13.70887 8873 ft 290 kts 230°
2026-04-24 11:16 43.48644 13.68785 8589 ft 288 kts 230°
2026-04-24 11:17 43.47349 13.66693 8303 ft 286 kts 230°
2026-04-24 11:17 43.46063 13.64615 8033 ft 285 kts 231°
2026-04-24 11:17 43.44778 13.62540 7795 ft 283 kts 230°
2026-04-24 11:17 43.43516 13.60507 7689 ft 277 kts 230°
2026-04-24 11:18 43.42351 13.58419 7448 ft 275 kts 239°
2026-04-24 11:18 43.41393 13.56143 7170 ft 275 kts 242°
2026-04-24 11:18 43.40477 13.53841 6908 ft 274 kts 242°
2026-04-24 11:18 43.39550 13.51557 6731 ft 271 kts 241°
2026-04-24 11:19 43.38626 13.49322 6515 ft 268 kts 241°
2026-04-24 11:19 43.37703 13.47112 6357 ft 264 kts 240°
2026-04-24 11:19 43.36796 13.44943 6236 ft 259 kts 244°
2026-04-24 11:19 43.36356 13.42606 5970 ft 249 kts 275°
2026-04-24 11:20 43.36776 13.40382 5735 ft 237 kts 302°
2026-04-24 11:20 43.37376 13.39153 5587 ft 230 kts 314°
2026-04-24 11:20 43.38471 13.37560 5332 ft 228 kts 319°
2026-04-24 11:21 43.39598 13.36050 5082 ft 225 kts 319°
2026-04-24 11:21 43.40703 13.34566 4808 ft 226 kts 317°
2026-04-24 11:21 43.41794 13.33046 4539 ft 221 kts 317°
2026-04-24 11:21 43.42867 13.31539 4296 ft 219 kts 317°
2026-04-24 11:22 43.43923 13.30055 4077 ft 215 kts 317°
2026-04-24 11:22 43.44964 13.28598 3857 ft 213 kts 316°
2026-04-24 11:22 43.45989 13.27104 3623 ft 214 kts 315°
2026-04-24 11:22 43.47035 13.25647 3410 ft 214 kts 317°
2026-04-24 11:23 43.48068 13.24202 3205 ft 209 kts 316°
2026-04-24 11:23 43.49120 13.22815 2905 ft 209 kts 328°
2026-04-24 11:23 43.50459 13.22380 2712 ft 192 kts 12°
2026-04-24 11:23 43.51634 13.23105 2488 ft 184 kts 30°
2026-04-24 11:24 43.52679 13.24124 2307 ft 184 kts 38°
2026-04-24 11:24 43.53640 13.25304 2045 ft 182 kts 42°
2026-04-24 11:24 43.54519 13.26476 1818 ft 170 kts 43°
2026-04-24 11:24 43.55336 13.27584 1599 ft 159 kts 43°
2026-04-24 11:25 43.56101 13.28635 1376 ft 151 kts 44°
2026-04-24 11:25 43.56826 13.29636 1217 ft 151 kts 44°
2026-04-24 11:25 43.57574 13.30665 987 ft 149 kts 45°
2026-04-24 11:25 43.58306 13.31668 817 ft 150 kts 46°
2026-04-24 11:26 43.59052 13.32690 619 ft 151 kts 45°
2026-04-24 11:26 43.59789 13.33700 379 ft 144 kts 46°
2026-04-24 11:26 43.60484 13.34654 167 ft 139 kts 47°
2026-04-24 11:26 43.61153 13.35575 52 ft 126 kts 44°
2026-04-24 11:27 43.61623 13.36216 47 ft 64 kts 44°
2026-04-24 11:27 43.61833 13.36505 44 ft 36 kts 45°
2026-04-24 11:27 43.61998 13.36730 41 ft 29 kts 45°
2026-04-24 11:27 43.62136 13.36919 41 ft 27 kts 44°
2026-04-24 11:28 43.62265 13.37096 41 ft 25 kts 44°
2026-04-24 11:28 43.62386 13.37260 39 ft 24 kts 45°
2026-04-24 11:28 43.62499 13.37415 38 ft 23 kts 46°
2026-04-24 11:28 43.62549 13.37525 36 ft 10 kts 354°
2026-04-24 11:29 43.62548 13.37473 36 ft 7 kts 219°
2026-04-24 11:29 43.62510 13.37429 37 ft 7 kts 220°
2026-04-24 11:29 43.62468 13.37373 39 ft 10 kts 225°
2026-04-24 11:29 43.62410 13.37293 39 ft 14 kts 225°
2026-04-24 11:30 43.62332 13.37187 40 ft 18 kts 225°
2026-04-24 11:30 43.62236 13.37056 40 ft 22 kts 225°
2026-04-24 11:30 43.62121 13.36899 41 ft 25 kts 225°
2026-04-24 11:30 43.61991 13.36721 41 ft 28 kts 225°
2026-04-24 11:31 43.61858 13.36540 44 ft 26 kts 225°
2026-04-24 11:31 43.61734 13.36371 47 ft 24 kts 225°
2026-04-24 11:31 43.61618 13.36213 47 ft 23 kts 225°
2026-04-24 11:31 43.61506 13.36060 47 ft 23 kts 225°
2026-04-24 11:32 43.61391 13.35903 48 ft 23 kts 224°
2026-04-24 11:32 43.61316 13.35801 48 ft 23 kts 224°
2026-04-24 11:32 43.61203 13.35648 51 ft 22 kts 224°
2026-04-24 11:32 43.61076 13.35558 52 ft 22 kts 173°
2026-04-24 11:33 43.60942 13.35566 50 ft 16 kts 184°
2026-04-24 11:33 43.60858 13.35487 48 ft 13 kts 225°
2026-04-24 11:33 43.60798 13.35407 52 ft 9 kts 211°
2026-04-24 11:33 43.60758 13.35428 54 ft 6 kts 151°
2026-04-24 11:34 43.60740 13.35439 53 ft 1 kts 158°
2026-04-24 11:34 43.60739 13.35439 51 ft 0 kts 158°